Weather Service Report


170 
ASUS44 KLZK 080205
RWRLZK

WEATHER ROUNDUP FOR ARKANSAS
NATIONAL WEATHER SERVICE LITTLE ROCK AR
800 PM CST WED DEC 07 2016

NOTE: "FAIR" INDICATES FEW OR NO CLOUDS BELOW 12,000 FEET WITH NO
SIGNIFICANT WEATHER AND/OR OBSTRUCTIONS TO VISIBILITY.

ARZ001-003-010-029-080300-
NORTHWEST ARKANSAS
  
CITY           SKY/WX    TMP DP  RH WIND       PRES   REMARKS
FAYETTEVILLE   CLOUDY    33  19  56 N8        30.32R WCI  26          
FORT SMITH     CLOUDY    36  32  85 N10       30.33R                  
HARRISON       CLOUDY    33  18  53 N10G16    30.30R WCI  25          
BENTONVILLE    CLOUDY    30  19  64 N15       30.34R WCI  19          
ROGERS         CLOUDY    30  24  78 N9        30.34R WCI  22          
SILOAM SPGS    CLOUDY    34  18  51 N13       30.33R WCI  25          
HIGHFILL       CLOUDY    32  22  66 N12       30.33R WCI  23          
SPRINGDALE     CLOUDY    34  19  55 N13       30.33R WCI  25          
$$

ARZ004-005-016-080300-
NORTH CENTRAL ARKANSAS
  
CITY           SKY/WX    TMP DP  RH WIND       PRES   REMARKS
BATESVILLE     CLOUDY    39  21  48 NW3       30.30R                  
FLIPPIN        CLOUDY    37  16  41 N14       30.29R                  
MTN HOME       CLOUDY    35  19  52 VRB7      30.30R WCI  29          
$$

ARZ040-041-080300-
WEST CENTRAL ARKANSAS
  
CITY           SKY/WX    TMP DP  RH WIND       PRES   REMARKS
MENA           CLOUDY    37  36  93 N7        30.26R                  
MOUNT IDA      CLOUDY    36  34  92 CALM      30.25R FOG              
$$

ARZ009-017-025-026-028-080300-
NORTHEAST ARKANSAS
  
CITY           SKY/WX    TMP DP  RH WIND       PRES   REMARKS
CORNING        CLOUDY    39  25  56 N8        30.28R                  
JONESBORO      CLOUDY    41  26  55 N5        30.27R                  
NEWPORT        CLOUDY    40  28  62 N6        30.28R                  
WALNUT RIDGE   CLOUDY    39  25  56 N7        30.27S                  
BLYTHEVILLE    CLOUDY    40  30  67 N12       30.26R                  
$$

ARZ022-023-033-042-044-080300-
CENTRAL ARKANSAS
  
CITY           SKY/WX    TMP DP  RH WIND       PRES   REMARKS
LITTLE ROCK    CLOUDY    40  31  70 N9        30.28R                  
N LITTLE ROCK    N/A     39  31  72 N6        30.30R                  
JACKSONVILLE   CLOUDY    41  29  62 VRB7      30.27R                  
SEARCY         CLOUDY    40  25  55 N8        30.30R                  
HOT SPRINGS    CLOUDY    39  33  79 N5        30.28R                  
RUSSELLVILLE   CLOUDY    34  32  92 CALM      30.31R                  
CLINTON        CLOUDY    39  21  48 VRB5      30.30R                  
$$

ARZ036-080300-
EAST ARKANSAS
  
CITY           SKY/WX    TMP DP  RH WIND       PRES   REMARKS
WEST MEMPHIS   CLOUDY    42  33  70 N8        30.24R                  
$$

ARZ050-053-066-070-073-080300-
SOUTHWEST ARKANSAS
  
CITY           SKY/WX    TMP DP  RH WIND       PRES   REMARKS
ARKADELPHIA    LGT RAIN  40  38  93 N10       30.27R FOG              
CAMDEN         CLOUDY    43  37  81 N6        30.24S                  
TEXARKANA      CLOUDY    42  41  96 NE9       30.23R FOG              
EL DORADO      CLOUDY    45  43  93 NE8       30.21F                  
DE QUEEN       CLOUDY    42  42 100 NE6       30.24R FOG              
$$

ARZ056-057-069-080300-
SOUTHEAST ARKANSAS
  
CITY           SKY/WX    TMP DP  RH WIND       PRES   REMARKS
PINE BLUFF     CLOUDY    42  35  76 N9        30.25S                  
STUTTGART      CLOUDY    43  32  65 N7        30.26R                  
MONTICELLO     CLOUDY    45  40  82 VRB3      30.24R                  

$$


  

Return to Home page


Western Regional Climate Center, wrcc@dri.edu